Regional Weather Roundup
Issued by NWS

Home | Current Version | Previous Version | Text Only | Print | Product List | Glossary Off
Versions: 1 2 3 4 5 6 7 8 9 10 11 12 13 14 15 16 17 18 19 20 21 22 23 24 25 26 27 28 29 30 31 32 33 34 35 36 37 38 39 40 41 42 43 44 45 46 47 48 49 50

000
ASUS43 KDMX 020103
RWRIA

WEATHER ROUNDUP FOR IOWA
NATIONAL WEATHER SERVICE DES MOINES IA
800 PM CDT SUN MAY 01 2016

NOTE: "FAIR" INDICATES FEW OR NO CLOUDS BELOW 12,000 FEET WITH NO
SIGNIFICANT WEATHER AND/OR OBSTRUCTIONS TO VISIBILITY.

* - THESE STATIONS ARE NOT NWS STATIONS...THUS NOT UNDER NWS
QUALITY CONTROL.  THEY ALSO DO NOT REPORT WEATHER SUCH
AS PRECIPITATION OR FOG.

IAZ001>003-012>014-020>022-031>034-043>046-020200-
   NORTHWEST IOWA

CITY           SKY/WX    TMP DP  RH WIND       PRES   REMARKS
CARROLL *      CLOUDY    52  46  82 NE7       30.09R
CHEROKEE *     PTCLDY    51  43  74 N6        30.11S
DENISON *      MOCLDY    50  45  81 CALM      30.09R
LE MARS *      CLOUDY    54  43  66 N6        30.13S
ORANGE CITY *  MOCLDY    54  41  62 CALM      30.13R
SHELDON *      MOCLDY    52  41  66 NE6       30.11S
SIOUX CITY     MOCLDY    53  41  63 N5        30.13S
SPENCER        MOCLDY    52  40  63 N8        30.11S
STORM LAKE *   PTCLDY    52  43  71 N10       30.10S
$$

IAZ055>058-069>071-079>083-090>094-020200-
   SOUTHWEST IOWA

CITY           SKY/WX    TMP DP  RH WIND       PRES   REMARKS
ATLANTIC *     CLOUDY    48  45  87 CALM      30.12R
AUDUBON *      CLOUDY    48  45  87 CALM      30.11R
CLARINDA *       N/A    N/A N/A N/A MISG        N/A
COUNCIL BLFS * CLOUDY    48  45  87 CALM      30.13R
CRESTON *      CLOUDY    46  43  87 N7        30.10S
HARLAN  *      CLOUDY    48  45  87 CALM      30.15R
LAMONI         CLOUDY    47  44  90 N7        30.07S
RED OAK *      CLOUDY    48  45  87 N7        30.13R
SHENANDOAH *   CLOUDY    48  45  87 N7        30.14R
$$

IAZ047>049-059>061-072>074-084-020200-
   CENTRAL IOWA

CITY           SKY/WX    TMP DP  RH WIND       PRES   REMARKS
AMES           CLOUDY    50  45  83 NE9       30.07R
ANKENY *       CLOUDY    48  46  93 N6G12     30.08R
BOONE *        MOCLDY    48  46  93 N9        30.07R
CHARITON *     CLOUDY    48  46  93 N7        30.07R
DES MOINES     CLOUDY    50  44  80 NE6       30.08R
GRINNELL*      CLOUDY    46  46 100 N8        30.06R
KNOXVILLE *    CLOUDY    48  45  87 N6        30.06R
MARSHALLTOWN   CLOUDY    48  45  89 N12       30.06R
NEWTON *       CLOUDY    48  48 100 N9        30.06R
PELLA *        CLOUDY    48  46  91 N5        30.07R
$$

IAZ004>006-015-016-023>025-035-036-020200-
   NORTH CENTRAL IOWA

CITY           SKY/WX    TMP DP  RH WIND       PRES   REMARKS
ALGONA *       MOCLDY    54  43  66 CALM      30.09F
CLARION *      CLEAR     48  46  93 NE8       30.08S
ESTHERVILLE    MOCLDY    52  43  71 N9        30.10S
FORT DODGE *   MOCLDY    50  41  71 NE7       30.08F
MASON CITY     PTCLDY    49  44  83 NE6       30.10S
FOREST CITY *  CLOUDY    52  41  66 E3        30.09S
WEBSTER CITY * PTCLDY    50  45  81 NE9       30.06S
IOWA FALLS *   MOCLDY    50  46  87 NE8       30.08S
$$

IAZ007>011-017>019-026>030-037>042-050>054-066-020200-
   NORTHEAST IOWA

CITY           SKY/WX    TMP DP  RH WIND       PRES   REMARKS
CEDAR RAPIDS   CLOUDY    48  47  96 N10       30.03R
CHARLES CITY * MOCLDY    48  48 100 NE6       30.09F
CLINTON *      RAIN      48  48 100 N6        30.02S FOG
DECORAH *      CLOUDY    46  46 100 CALM      30.08F
DUBUQUE        CLOUDY    47  46  97 N15       30.03R
MONTICELLO *   MOCLDY    48  46  93 N10G17    30.03S
OELWEIN *      CLOUDY    48  46  93 NE14G21   30.07F
WATERLOO       MOCLDY    47  44  90 N12       30.06F
$$

IAZ064-065-067-068-078-020200-
   EAST CENTRAL IOWA

CITY           SKY/WX    TMP DP  RH WIND       PRES   REMARKS
DAVENPORT      LGT RAIN  49  47  93 N10       30.01S FOG
IOWA CITY      CLOUDY    49  48  97 N9        30.05R FOG
MT. PLEASANT * CLOUDY    52  52 100 NW8       30.03R
MUSCATINE *    CLOUDY    50  48  93 NW6       30.03R
QUAD CITIES    LGT RAIN  50  47  89 NE6       29.99F
$$

IAZ062-063-075>077-085>089-095>099-020200-
   SOUTHEAST IOWA

CITY           SKY/WX    TMP DP  RH WIND       PRES   REMARKS
BURLINGTON     CLOUDY    50  49  96 N6        30.01R
FAIRFIELD *    CLOUDY    48  46  93 NW8       30.04R
FORT MADISON * CLOUDY    50  48  93 NW6       30.03R
KEOKUK *       CLOUDY    50  48  93 NW7       30.02R
OSKALOOSA *    LGT RAIN  48  46  93 N6        30.06R
OTTUMWA        CLOUDY    48  46  93 N6        30.05R
WASHINGTON *   CLOUDY    48  48 100 N9        30.05R
$$

ABBREVIATIONS USED IN REMARKS
   TC - TEMPERATURES IN CELSIUS
  WCI - WIND CHILL INDEX
   HX - HEAT INDEX
  VSB - VISIBILITY
$$




USA.gov is the U.S. government's official web portal to all federal, state and local government web resources and services.